Wiscasset, ME

2:48 PM EDT on May 29, 2017 (GMT -0400)
Wiscasset

Weather History for KIWI - August, 2014

Change the Weather History Date:

Monday, August 18, 2014

  Actual Average Record
Temperature  
Mean Temperature 64 °F -  
Max Temperature 73 °F 76 °F 88 °F (2002)
Min Temperature 55 °F 54 °F 46 °F (2005)
Degree Days  
Heating Degree Days 1    
Growing Degree Days 14 (Base 50)    
Moisture  
Dew Point 54 °F    
Average Humidity 70    
Maximum Humidity 93    
Minimum Humidity 53    
Precipitation  
Precipitation 0.01 in - - ()
Sea Level Pressure  
Sea Level Pressure 29.80 in    
Wind  
Wind Speed 3 mph (WNW)    
Max Wind Speed 9 mph    
Max Gust Speed 18 mph    
Visibility 10 miles    
Events      
Averages and records for this station are not official NWS values.
T = Trace of Precipitation, MM = Missing Value Source: NWS Daily Summary

Daily Weather History Graph

Daily Weather History Graph

Search for Another Location

Airport or City:

Trip Planner

Search our weather history database for the weather conditions in past years. The results will help you decide how hot, cold, wet, or windy it might be!

Date:

Astronomy

Aug. 18, 2014 Rise Set
Actual Time 5:46 AM EDT 7:38 PM EDT
Civil Twilight 5:15 AM EDT 8:09 PM EDT
Nautical Twilight 4:37 AM EDT 8:46 PM EDT
Astronomical Twilight 3:56 AM EDT 9:27 PM EDT
Moon No Moon Rise 2:41 PM EDT (8/18)
Length of Visible Light 14h 54m
Length of Day
13h 52m
Last Quarter, 38% of the Moon is Illuminated
Aug 18
Last Quarter
Aug 25
New
Sep 2
First Quarter
Sep 8
Full
Sep 15
Last Quarter

Hourly Weather History & Observations

Time (EDT) Temp. Dew Point Humidity Pressure Visibility Wind Dir Wind Speed Gust Speed Precip Events Conditions
12:53 AM 55.9 °F 54.0 °F 93% 29.78 in 10.0 mi Calm Calm - N/A   Scattered Clouds
1:53 AM 55.0 °F 53.1 °F 93% 29.76 in 10.0 mi Calm Calm - N/A   Partly Cloudy
3:53 AM 60.1 °F 55.9 °F 86% 29.75 in 10.0 mi Calm Calm - 0.00 in   Mostly Cloudy
4:53 AM 59.0 °F 55.9 °F 90% 29.76 in 10.0 mi West 3.5 mph - N/A   Overcast
5:53 AM 59.0 °F 57.0 °F 93% 29.77 in 10.0 mi West 3.5 mph - 0.01 in   Mostly Cloudy
6:53 AM 60.1 °F 57.0 °F 90% 29.78 in 10.0 mi Variable 3.5 mph - N/A   Clear
7:53 AM 63.0 °F 55.0 °F 75% 29.78 in 10.0 mi West 8.1 mph - N/A   Clear
8:53 AM 64.9 °F 54.0 °F 68% 29.80 in 10.0 mi NW 9.2 mph - N/A   Clear
9:53 AM 66.9 °F 53.1 °F 61% 29.79 in 10.0 mi NW 8.1 mph - N/A   Clear
10:53 AM 68.0 °F 53.1 °F 59% 29.79 in 10.0 mi NW 8.1 mph - N/A   Partly Cloudy
11:53 AM 69.1 °F 53.1 °F 57% 29.79 in 10.0 mi WNW 8.1 mph 18.4 mph N/A   Mostly Cloudy
12:53 PM 71.1 °F 54.0 °F 55% 29.78 in 10.0 mi Variable 5.8 mph - N/A   Overcast
1:53 PM 73.9 °F 55.9 °F 53% 29.78 in 10.0 mi Variable 3.5 mph - N/A   Mostly Cloudy
2:53 PM 72.0 °F 54.0 °F 53% 29.78 in 10.0 mi Variable 5.8 mph - N/A   Scattered Clouds
3:53 PM 72.0 °F 54.0 °F 53% 29.79 in 10.0 mi WNW 5.8 mph - N/A   Overcast
4:53 PM 72.0 °F 54.0 °F 53% 29.79 in 10.0 mi Variable 4.6 mph - N/A   Partly Cloudy
5:53 PM 71.1 °F 53.1 °F 53% 29.80 in 10.0 mi Variable 3.5 mph - N/A   Mostly Cloudy
6:53 PM 68.0 °F 53.1 °F 59% 29.81 in 10.0 mi Calm Calm - N/A   Clear
7:53 PM 64.9 °F 52.0 °F 63% 29.83 in 10.0 mi Variable 3.5 mph - N/A   Clear
8:53 PM 61.0 °F 52.0 °F 72% 29.86 in 10.0 mi Calm Calm - N/A   Clear
9:53 PM 57.0 °F 52.0 °F 83% 29.86 in 10.0 mi Calm Calm - N/A   Clear
10:53 PM 55.9 °F 51.1 °F 84% 29.86 in 10.0 mi Calm Calm - N/A   Clear